| time (UTC) | temp F | wind direction | speed MPH | gust MPH | rain 1hr in | rain 24hr in | rain mn in | humidity % | barometer mb |
| 20260507075503 | 48 | 30 | 2.0 | 7.0 | 0.00 | 0.40 | 0.10 | 92 | 1005.0 |
| 20260507075006 | 48 | 352 | 1.0 | 4.0 | 0.00 | 0.40 | 0.10 | 93 | 1005.0 |
| 20260507074523 | 48 | 339 | 1.0 | 3.0 | 0.00 | 0.40 | 0.10 | 94 | 1004.8 |
| 20260507074001 | 48 | 360 | 0.0 | 4.0 | 0.00 | 0.40 | 0.10 | 94 | 1004.9 |
| 20260507073506 | 48 | 316 | 1.0 | 4.0 | 0.00 | 0.40 | 0.10 | 94 | 1005.0 |
| 20260507073024 | 48 | 333 | 1.0 | 3.0 | 0.00 | 0.40 | 0.10 | 95 | 1004.8 |
| 20260507072503 | 48 | 300 | 0.0 | 5.0 | 0.00 | 0.40 | 0.10 | 95 | 1004.9 |
| 20260507072007 | 48 | 236 | 1.0 | 5.0 | 0.00 | 0.40 | 0.10 | 95 | 1004.9 |
| 20260507071525 | 48 | 284 | 0.0 | 1.0 | 0.00 | 0.40 | 0.10 | 95 | 1004.7 |
| 20260507071002 | 48 | 352 | 0.0 | 2.0 | 0.00 | 0.40 | 0.10 | 95 | 1004.8 |
| 20260507070507 | 48 | 326 | 0.0 | 4.0 | 0.00 | 0.40 | 0.10 | 95 | 1004.8 |
| 20260507070008 | 49 | 306 | 0.0 | 4.0 | 0.00 | 0.40 | 0.10 | 95 | 1004.6 |
| 20260507065505 | 49 | 329 | 0.0 | 4.0 | 0.00 | 0.40 | 0.10 | 95 | 1004.6 |
| 20260507065013 | 49 | 360 | 0.0 | 2.0 | 0.00 | 0.40 | 0.10 | 95 | 1004.6 |
| 20260507064503 | 49 | 360 | 0.0 | 2.0 | 0.00 | 0.40 | 0.10 | 95 | 1004.4 |
| 20260507064003 | 49 | 338 | 0.0 | 2.0 | 0.00 | 0.40 | 0.10 | 95 | 1004.4 |
| 20260507063507 | 49 | 25 | 0.0 | 2.0 | 0.00 | 0.40 | 0.10 | 94 | 1004.3 |
| 20260507063004 | 49 | 35 | 0.0 | 3.0 | 0.00 | 0.40 | 0.10 | 94 | 1004.5 |
| 20260507062503 | 49 | 281 | 0.0 | 3.0 | 0.00 | 0.40 | 0.10 | 95 | 1004.5 |
| 20260507062006 | 49 | 288 | 0.0 | 4.0 | 0.00 | 0.40 | 0.10 | 95 | 1004.2 |
| 20260507061507 | 49 | 331 | 0.0 | 4.0 | 0.00 | 0.40 | 0.10 | 94 | 1004.1 |
| 20260507061006 | 49 | 13 | 0.0 | 3.0 | 0.01 | 0.40 | 0.10 | 94 | 1004.0 |
| 20260507060505 | 49 | 273 | 0.0 | 4.0 | 0.01 | 0.40 | 0.10 | 94 | 1004.2 |
| 20260507060013 | 49 | 286 | 1.0 | 4.0 | 0.01 | 0.40 | 0.10 | 94 | 1004.2 |
| 20260507055506 | 49 | 17 | 1.0 | 3.0 | 0.01 | 0.40 | 0.10 | 94 | 1004.0 |
| 20260507055011 | 50 | 40 | 2.0 | 9.0 | 0.01 | 0.40 | 0.10 | 94 | 1004.1 |
| 20260507054506 | 50 | 360 | 1.0 | 9.0 | 0.01 | 0.40 | 0.10 | 94 | 1004.2 |
| 20260507054007 | 50 | 326 | 2.0 | 8.0 | 0.01 | 0.40 | 0.10 | 94 | 1003.9 |
| 20260507053508 | 50 | 17 | 1.0 | 7.0 | 0.02 | 0.40 | 0.10 | 94 | 1004.3 |
| 20260507053010 | 51 | 340 | 2.0 | 10.0 | 0.02 | 0.40 | 0.10 | 94 | 1004.2 |
| 20260507052506 | 51 | 167 | 1.0 | 12.0 | 0.04 | 0.40 | 0.10 | 95 | 1004.1 |
| 20260507052012 | 51 | 9 | 3.0 | 12.0 | 0.05 | 0.40 | 0.10 | 95 | 1004.2 |
| 20260507051513 | 51 | 40 | 4.0 | 10.0 | 0.08 | 0.40 | 0.10 | 95 | 1003.9 |
| 20260507051008 | 51 | 28 | 1.0 | 6.0 | 0.09 | 0.39 | 0.09 | 96 | 1004.0 |
| 20260507050514 | 52 | 71 | 2.0 | 8.0 | 0.09 | 0.39 | 0.09 | 95 | 1004.2 |
| 20260507050021 | 52 | 325 | 2.0 | 8.0 | 0.09 | 0.39 | 0.09 | 95 | 1004.0 |
| 20260507045507 | 52 | 352 | 1.0 | 6.0 | 0.09 | 0.39 | 0.09 | 96 | 1003.8 |
| 20260507045007 | 52 | 17 | 1.0 | 6.0 | 0.09 | 0.39 | 0.09 | 96 | 1003.7 |
| 20260507044511 | 52 | 5 | 2.0 | 6.0 | 0.09 | 0.39 | 0.09 | 96 | 1003.8 |
| 20260507044010 | 52 | 9 | 1.0 | 6.0 | 0.09 | 0.39 | 0.09 | 96 | 1003.9 |
| 20260507043507 | 52 | 324 | 1.0 | 8.0 | 0.08 | 0.38 | 0.08 | 96 | 1003.8 |
| 20260507043014 | 52 | 5 | 2.0 | 8.0 | 0.08 | 0.38 | 0.08 | 96 | 1003.6 |
| 20260507042508 | 53 | 42 | 2.0 | 9.0 | 0.06 | 0.36 | 0.06 | 97 | 1003.9 |
| 20260507042003 | 52 | 49 | 3.0 | 9.0 | 0.05 | 0.35 | 0.05 | 97 | 1003.9 |
| 20260507041514 | 52 | 342 | 3.0 | 7.0 | 0.02 | 0.32 | 0.02 | 96 | 1004.0 |
| 20260507041008 | 52 | 14 | 2.0 | 4.0 | 0.00 | 0.30 | 0.00 | 96 | 1003.9 |
| 20260507040507 | 52 | 254 | 1.0 | 2.0 | 0.00 | 0.30 | 0.00 | 96 | 1003.4 |
| 20260507040016 | 52 | 244 | 0.0 | 2.0 | 0.00 | 0.30 | 0.00 | 96 | 1003.3 |
| 20260507035508 | 52 | 240 | 0.0 | 3.0 | 0.00 | 0.30 | 0.30 | 96 | 1003.1 |
| 20260507035008 | 52 | 205 | 0.0 | 3.0 | 0.00 | 0.30 | 0.30 | 96 | 1003.1 |
| 20260507034520 | 52 | 150 | 0.0 | 1.0 | 0.00 | 0.30 | 0.30 | 96 | 1002.9 |
| 20260507034010 | 52 | 163 | 0.0 | 1.0 | 0.00 | 0.30 | 0.30 | 96 | 1002.9 |
| 20260507033503 | 52 | 163 | 0.0 | 2.0 | 0.00 | 0.30 | 0.30 | 96 | 1003.0 |
| 20260507033021 | 52 | 99 | 0.0 | 2.0 | 0.00 | 0.30 | 0.30 | 96 | 1002.7 |
| 20260507032513 | 52 | 99 | 0.0 | 1.0 | 0.00 | 0.30 | 0.30 | 96 | 1002.8 |
| 20260507032006 | 52 | 99 | 0.0 | 1.0 | 0.00 | 0.30 | 0.30 | 96 | 1002.9 |
| 20260507031521 | 51 | 99 | 0.0 | 1.0 | 0.00 | 0.30 | 0.30 | 96 | 1003.0 |
| 20260507031014 | 51 | 83 | 0.0 | 1.0 | 0.00 | 0.30 | 0.30 | 96 | 1002.9 |
| 20260507030507 | 51 | 97 | 0.0 | 1.0 | 0.00 | 0.30 | 0.30 | 96 | 1003.0 |
| 20260507030018 | 51 | 97 | 0.0 | 1.0 | 0.00 | 0.30 | 0.30 | 96 | 1003.0 |
| 20260507025508 | 51 | 97 | 0.0 | 2.0 | 0.00 | 0.30 | 0.30 | 96 | 1003.0 |
| 20260507025003 | 51 | 97 | 0.0 | 2.0 | 0.00 | 0.30 | 0.30 | 96 | 1003.0 |
| 20260507024522 | 51 | 46 | 0.0 | 2.0 | 0.01 | 0.30 | 0.30 | 96 | 1003.0 |
| 20260507024007 | 51 | 82 | 0.0 | 2.0 | 0.01 | 0.30 | 0.30 | 96 | 1003.1 |
| 20260507023507 | 51 | 130 | 0.0 | 1.0 | 0.01 | 0.30 | 0.30 | 96 | 1003.2 |
| 20260507023022 | 51 | 154 | 0.0 | 1.0 | 0.01 | 0.30 | 0.30 | 96 | 1003.3 |
| 20260507022510 | 51 | 154 | 0.0 | 1.0 | 0.02 | 0.30 | 0.30 | 96 | 1003.4 |
| 20260507022008 | 51 | 178 | 0.0 | 3.0 | 0.02 | 0.30 | 0.30 | 96 | 1003.4 |
| 20260507021522 | 51 | 184 | 0.0 | 3.0 | 0.02 | 0.30 | 0.30 | 96 | 1003.5 |
| 20260507021008 | 51 | 123 | 0.0 | 1.0 | 0.02 | 0.30 | 0.30 | 96 | 1003.5 |
| 20260507020508 | 51 | 119 | 0.0 | 2.0 | 0.02 | 0.30 | 0.30 | 96 | 1003.5 |
| 20260507020024 | 51 | 212 | 0.0 | 3.0 | 0.02 | 0.30 | 0.30 | 96 | 1003.6 |
| 20260507015514 | 51 | 204 | 1.0 | 3.0 | 0.02 | 0.30 | 0.30 | 96 | 1003.6 |
| 20260507015006 | 51 | 165 | 0.0 | 3.0 | 0.03 | 0.30 | 0.30 | 96 | 1003.8 |
| 20260507014528 | 51 | 200 | 1.0 | 3.0 | 0.02 | 0.29 | 0.29 | 96 | 1003.9 |
| 20260507014004 | 51 | 181 | 0.0 | 3.0 | 0.02 | 0.29 | 0.29 | 96 | 1003.9 |
| 20260507013508 | 51 | 158 | 1.0 | 4.0 | 0.02 | 0.29 | 0.29 | 95 | 1004.1 |
| 20260507013033 | 51 | 169 | 1.0 | 4.0 | 0.02 | 0.29 | 0.29 | 95 | 1004.0 |
| 20260507012503 | 52 | 168 | 1.0 | 5.0 | 0.01 | 0.28 | 0.28 | 95 | 1004.0 |
| 20260507012009 | 52 | 194 | 1.0 | 5.0 | 0.01 | 0.28 | 0.28 | 95 | 1004.1 |
| 20260507011531 | 52 | 216 | 1.0 | 3.0 | 0.01 | 0.28 | 0.28 | 96 | 1004.1 |
| 20260507011005 | 52 | 171 | 1.0 | 4.0 | 0.01 | 0.28 | 0.28 | 96 | 1004.2 |
| 20260507010510 | 52 | 198 | 1.0 | 4.0 | 0.01 | 0.28 | 0.28 | 96 | 1004.2 |
| 20260507010034 | 52 | 207 | 1.0 | 9.0 | 0.01 | 0.28 | 0.28 | 96 | 1004.2 |
| 20260507005506 | 52 | 175 | 2.0 | 11.0 | 0.01 | 0.28 | 0.28 | 96 | 1004.2 |
| 20260507005014 | 52 | 186 | 2.0 | 13.0 | 0.00 | 0.27 | 0.27 | 96 | 1004.2 |
| 20260507004524 | 52 | 192 | 3.0 | 13.0 | 0.00 | 0.27 | 0.27 | 96 | 1004.1 |
| 20260507004007 | 52 | 174 | 2.0 | 6.0 | 0.00 | 0.27 | 0.27 | 96 | 1004.3 |
| 20260507003509 | 52 | 182 | 1.0 | 9.0 | 0.00 | 0.27 | 0.27 | 96 | 1004.4 |
| 20260507003026 | 52 | 186 | 1.0 | 9.0 | 0.00 | 0.27 | 0.27 | 95 | 1004.2 |
| 20260507002506 | 52 | 158 | 1.0 | 4.0 | 0.00 | 0.27 | 0.27 | 96 | 1004.2 |
| 20260507002011 | 52 | 190 | 1.0 | 6.0 | 0.00 | 0.27 | 0.27 | 96 | 1004.2 |
| 20260507001528 | 52 | 170 | 2.0 | 8.0 | 0.00 | 0.27 | 0.27 | 96 | 1004.2 |
| 20260507001007 | 52 | 134 | 2.0 | 8.0 | 0.00 | 0.27 | 0.27 | 96 | 1004.3 |
| 20260507000511 | 52 | 196 | 1.0 | 7.0 | 0.00 | 0.27 | 0.27 | 95 | 1004.2 |
| 20260507000028 | 52 | 172 | 2.0 | 6.0 | 0.00 | 0.27 | 0.27 | 95 | 1004.3 |
| 20260506235507 | 52 | 171 | 2.0 | 6.0 | 0.00 | 0.27 | 0.27 | 95 | 1004.3 |
| 20260506235010 | 52 | 205 | 1.0 | 4.0 | 0.00 | 0.27 | 0.27 | 95 | 1004.1 |
| 20260506234526 | 52 | 170 | 1.0 | 4.0 | 0.00 | 0.27 | 0.27 | 95 | 1004.1 |
| 20260506234006 | 52 | 146 | 1.0 | 4.0 | 0.00 | 0.27 | 0.27 | 95 | 1004.0 |
| 20260506233510 | 52 | 182 | 1.0 | 6.0 | 0.00 | 0.27 | 0.27 | 95 | 1004.1 |
| 20260506233008 | 52 | 183 | 2.0 | 6.0 | 0.01 | 0.27 | 0.27 | 95 | 1004.3 |
| 20260506232508 | 52 | 193 | 2.0 | 4.0 | 0.01 | 0.27 | 0.27 | 95 | 1004.3 |
| 20260506232009 | 52 | 207 | 1.0 | 4.0 | 0.01 | 0.27 | 0.27 | 95 | 1004.3 |
| 20260506231510 | 52 | 167 | 1.0 | 6.0 | 0.01 | 0.27 | 0.27 | 94 | 1004.3 |
| 20260506231007 | 52 | 202 | 1.0 | 6.0 | 0.01 | 0.27 | 0.27 | 94 | 1004.4 |
| 20260506230504 | 52 | 182 | 1.0 | 4.0 | 0.02 | 0.27 | 0.27 | 94 | 1004.4 |
| 20260506230010 | 52 | 185 | 1.0 | 4.0 | 0.02 | 0.27 | 0.27 | 94 | 1004.4 |
| 20260506225508 | 53 | 162 | 1.0 | 4.0 | 0.02 | 0.27 | 0.27 | 94 | 1004.6 |
| 20260506225006 | 53 | 190 | 1.0 | 4.0 | 0.03 | 0.27 | 0.27 | 95 | 1004.6 |
| 20260506224512 | 53 | 175 | 1.0 | 5.0 | 0.03 | 0.27 | 0.27 | 95 | 1004.6 |
| 20260506224006 | 53 | 186 | 0.0 | 5.0 | 0.03 | 0.27 | 0.27 | 95 | 1004.7 |
| 20260506223503 | 53 | 185 | 1.0 | 5.0 | 0.04 | 0.27 | 0.27 | 95 | 1004.7 |
| 20260506223017 | 53 | 161 | 1.0 | 6.0 | 0.04 | 0.26 | 0.26 | 95 | 1004.8 |
| 20260506222509 | 53 | 174 | 2.0 | 6.0 | 0.04 | 0.26 | 0.26 | 95 | 1004.7 |
| 20260506222006 | 53 | 194 | 2.0 | 6.0 | 0.04 | 0.26 | 0.26 | 95 | 1004.9 |
| 20260506221513 | 53 | 136 | 1.0 | 11.0 | 0.05 | 0.26 | 0.26 | 95 | 1004.8 |
| 20260506221011 | 53 | 134 | 2.0 | 11.0 | 0.08 | 0.26 | 0.26 | 95 | 1004.9 |
| 20260506220503 | 53 | 196 | 2.0 | 6.0 | 0.08 | 0.25 | 0.25 | 95 | 1004.9 |
| 20260506220014 | 53 | 174 | 2.0 | 5.0 | 0.11 | 0.25 | 0.25 | 95 | 1004.9 |
| 20260506215510 | 53 | 160 | 1.0 | 5.0 | 0.11 | 0.25 | 0.25 | 95 | 1005.0 |
| 20260506215004 | 53 | 163 | 1.0 | 4.0 | 0.11 | 0.24 | 0.24 | 95 | 1005.1 |
| 20260506214517 | 53 | 152 | 1.0 | 5.0 | 0.11 | 0.24 | 0.24 | 94 | 1005.1 |
| 20260506214007 | 53 | 186 | 1.0 | 5.0 | 0.12 | 0.24 | 0.24 | 94 | 1005.0 |
| 20260506213502 | 53 | 176 | 1.0 | 5.0 | 0.11 | 0.23 | 0.23 | 94 | 1005.1 |
| 20260506213018 | 53 | 327 | 2.0 | 5.0 | 0.10 | 0.22 | 0.22 | 94 | 1005.1 |
| 20260506212507 | 53 | 181 | 2.0 | 5.0 | 0.11 | 0.22 | 0.22 | 94 | 1005.2 |
| 20260506212004 | 53 | 169 | 2.0 | 7.0 | 0.11 | 0.22 | 0.22 | 94 | 1005.1 |
| 20260506211522 | 53 | 205 | 1.0 | 7.0 | 0.10 | 0.21 | 0.21 | 94 | 1005.3 |
| 20260506211011 | 53 | 174 | 1.0 | 5.0 | 0.07 | 0.18 | 0.18 | 93 | 1005.4 |
| 20260506210504 | 53 | 141 | 1.0 | 4.0 | 0.06 | 0.17 | 0.17 | 93 | 1005.4 |
| 20260506210019 | 53 | 206 | 1.0 | 4.0 | 0.04 | 0.14 | 0.14 | 93 | 1005.5 |
| 20260506205511 | 53 | 194 | 1.0 | 4.0 | 0.04 | 0.14 | 0.14 | 93 | 1005.4 |
| 20260506205005 | 53 | 275 | 1.0 | 4.0 | 0.04 | 0.13 | 0.13 | 93 | 1005.3 |
| 20260506204519 | 53 | 159 | 1.0 | 4.0 | 0.07 | 0.13 | 0.13 | 93 | 1005.3 |
| 20260506204011 | 53 | 175 | 1.0 | 4.0 | 0.07 | 0.12 | 0.12 | 93 | 1005.3 |
| 20260506203507 | 54 | 154 | 1.0 | 4.0 | 0.07 | 0.12 | 0.12 | 93 | 1005.3 |
| 20260506203033 | 54 | 180 | 1.0 | 4.0 | 0.08 | 0.12 | 0.12 | 93 | 1005.3 |
| 20260506202503 | 54 | 175 | 1.0 | 4.0 | 0.07 | 0.11 | 0.11 | 93 | 1005.4 |
| 20260506202009 | 54 | 162 | 1.0 | 4.0 | 0.07 | 0.11 | 0.11 | 93 | 1005.3 |
| 20260506201522 | 54 | 175 | 1.0 | 4.0 | 0.08 | 0.11 | 0.11 | 93 | 1005.3 |
| 20260506201007 | 54 | 171 | 1.0 | 3.0 | 0.09 | 0.11 | 0.11 | 93 | 1005.5 |
| 20260506200509 | 54 | 167 | 1.0 | 2.0 | 0.09 | 0.11 | 0.11 | 93 | 1005.4 |
| 20260506200024 | 54 | 177 | 0.0 | 3.0 | 0.09 | 0.10 | 0.10 | 93 | 1005.5 |
| 20260506195508 | 54 | 179 | 1.0 | 7.0 | 0.09 | 0.10 | 0.10 | 93 | 1005.7 |
| 20260506195006 | 54 | 167 | 1.0 | 7.0 | 0.08 | 0.09 | 0.09 | 92 | 1005.7 |
| 20260506194526 | 54 | 97 | 1.0 | 7.0 | 0.06 | 0.06 | 0.06 | 91 | 1006.1 |
| 20260506194003 | 54 | 153 | 0.0 | 4.0 | 0.05 | 0.05 | 0.05 | 91 | 1006.0 |
| 20260506193508 | 54 | 160 | 1.0 | 3.0 | 0.05 | 0.05 | 0.05 | 91 | 1006.1 |
| 20260506193023 | 55 | 155 | 1.0 | 6.0 | 0.04 | 0.04 | 0.04 | 92 | 1005.9 |
| 20260506192507 | 54 | 160 | 0.0 | 6.0 | 0.04 | 0.04 | 0.04 | 92 | 1005.9 |
| 20260506192014 | 54 | 189 | 1.0 | 5.0 | 0.04 | 0.04 | 0.04 | 92 | 1006.0 |
| 20260506191524 | 54 | 163 | 3.0 | 8.0 | 0.03 | 0.03 | 0.03 | 92 | 1006.0 |
| 20260506191006 | 54 | 182 | 1.0 | 8.0 | 0.02 | 0.02 | 0.02 | 91 | 1006.0 |
| 20260506190509 | 54 | 198 | 2.0 | 7.0 | 0.02 | 0.02 | 0.02 | 90 | 1006.3 |
| 20260506190024 | 54 | 241 | 1.0 | 4.0 | 0.01 | 0.01 | 0.01 | 89 | 1005.9 |
| 20260506185507 | 54 | 171 | 0.0 | 3.0 | 0.01 | 0.01 | 0.01 | 89 | 1005.9 |
| 20260506185009 | 54 | 169 | 1.0 | 3.0 | 0.01 | 0.01 | 0.01 | 88 | 1005.9 |
| 20260506184529 | 54 | 219 | 1.0 | 7.0 | 0.00 | 0.00 | 0.00 | 87 | 1005.8 |
| 20260506184009 | 54 | 163 | 1.0 | 8.0 | 0.00 | 0.00 | 0.00 | 86 | 1005.9 |
| 20260506183510 | 54 | 198 | 2.0 | 8.0 | 0.00 | 0.00 | 0.00 | 85 | 1005.9 |
| 20260506183026 | 54 | 188 | 1.0 | 4.0 | 0.00 | 0.00 | 0.00 | 84 | 1005.9 |
| 20260506182507 | 54 | 170 | 1.0 | 4.0 | 0.00 | 0.00 | 0.00 | 84 | 1005.9 |
| 20260506182010 | 54 | 136 | 1.0 | 3.0 | 0.00 | 0.00 | 0.00 | 84 | 1005.9 |
| 20260506181525 | 54 | 175 | 1.0 | 4.0 | 0.00 | 0.00 | 0.00 | 84 | 1005.9 |
| 20260506181007 | 54 | 184 | 1.0 | 4.0 | 0.00 | 0.00 | 0.00 | 84 | 1006.0 |
| 20260506180509 | 54 | 184 | 1.0 | 4.0 | 0.00 | 0.00 | 0.00 | 84 | 1006.1 |
| 20260506180030 | 54 | 173 | 1.0 | 4.0 | 0.00 | 0.00 | 0.00 | 84 | 1006.1 |
| 20260506175509 | 54 | 164 | 0.0 | 3.0 | 0.00 | 0.00 | 0.00 | 84 | 1006.1 |
| 20260506175012 | 54 | 204 | 1.0 | 8.0 | 0.00 | 0.00 | 0.00 | 84 | 1006.1 |
| 20260506174508 | 54 | 148 | 1.0 | 8.0 | 0.00 | 0.00 | 0.00 | 84 | 1006.2 |
| 20260506174009 | 54 | 182 | 1.0 | 4.0 | 0.00 | 0.00 | 0.00 | 84 | 1006.2 |
| 20260506173512 | 54 | 132 | 1.0 | 6.0 | 0.00 | 0.00 | 0.00 | 84 | 1006.3 |
| 20260506173017 | 54 | 169 | 1.0 | 6.0 | 0.00 | 0.00 | 0.00 | 83 | 1006.4 |
| 20260506172507 | 54 | 121 | 1.0 | 5.0 | 0.00 | 0.00 | 0.00 | 83 | 1006.4 |
| 20260506172010 | 55 | 192 | 1.0 | 4.0 | 0.00 | 0.00 | 0.00 | 83 | 1006.6 |
| 20260506171514 | 55 | 157 | 1.0 | 3.0 | 0.00 | 0.00 | 0.00 | 82 | 1006.6 |
| 20260506171008 | 55 | 173 | 1.0 | 3.0 | 0.00 | 0.00 | 0.00 | 82 | 1006.7 |
| 20260506170513 | 56 | 161 | 0.0 | 4.0 | 0.00 | 0.00 | 0.00 | 80 | 1006.8 |
| 20260506170013 | 57 | 175 | 1.0 | 4.0 | 0.00 | 0.00 | 0.00 | 79 | 1006.9 |
| 20260506165508 | 57 | 163 | 1.0 | 4.0 | 0.00 | 0.00 | 0.00 | 79 | 1007.0 |
| 20260506165010 | 58 | 158 | 1.0 | 4.0 | 0.00 | 0.00 | 0.00 | 79 | 1007.1 |
| 20260506164514 | 58 | 180 | 1.0 | 4.0 | 0.00 | 0.00 | 0.00 | 79 | 1007.1 |
| 20260506164011 | 58 | 155 | 1.0 | 4.0 | 0.00 | 0.00 | 0.00 | 80 | 1007.1 |
| 20260506163509 | 58 | 157 | 1.0 | 4.0 | 0.00 | 0.00 | 0.00 | 79 | 1007.3 |
| 20260506163025 | 58 | 76 | 1.0 | 8.0 | 0.00 | 0.00 | 0.00 | 80 | 1007.3 |
| 20260506162506 | 58 | 199 | 1.0 | 8.0 | 0.00 | 0.00 | 0.00 | 80 | 1007.5 |
| 20260506162011 | 59 | 160 | 1.0 | 5.0 | 0.00 | 0.00 | 0.00 | 80 | 1007.7 |
| 20260506161518 | 58 | 210 | 2.0 | 5.0 | 0.00 | 0.00 | 0.00 | 80 | 1007.7 |
| 20260506161010 | 58 | 153 | 2.0 | 5.0 | 0.00 | 0.00 | 0.00 | 80 | 1007.8 |
| 20260506160513 | 58 | 198 | 2.0 | 5.0 | 0.00 | 0.00 | 0.00 | 80 | 1007.8 |
| 20260506160021 | 58 | 164 | 1.0 | 5.0 | 0.00 | 0.00 | 0.00 | 80 | 1007.9 |
| 20260506155510 | 58 | 163 | 1.0 | 4.0 | 0.00 | 0.00 | 0.00 | 81 | 1008.0 |
| 20260506155009 | 58 | 127 | 1.0 | 4.0 | 0.00 | 0.00 | 0.00 | 81 | 1008.2 |
| 20260506154521 | 58 | 130 | 1.0 | 4.0 | 0.00 | 0.00 | 0.00 | 81 | 1008.0 |
| 20260506154018 | 58 | 69 | 1.0 | 5.0 | 0.00 | 0.00 | 0.00 | 81 | 1008.0 |
| 20260506153516 | 57 | 133 | 1.0 | 5.0 | 0.00 | 0.00 | 0.00 | 81 | 1008.1 |
| 20260506153020 | 58 | 159 | 1.0 | 5.0 | 0.00 | 0.00 | 0.00 | 81 | 1008.1 |
| 20260506152508 | 58 | 180 | 1.0 | 4.0 | 0.00 | 0.00 | 0.00 | 81 | 1008.3 |
| 20260506152012 | 58 | 212 | 1.0 | 5.0 | 0.00 | 0.00 | 0.00 | 81 | 1008.2 |
| 20260506151523 | 58 | 196 | 1.0 | 5.0 | 0.00 | 0.00 | 0.00 | 81 | 1008.1 |
| 20260506151008 | 58 | 175 | 1.0 | 5.0 | 0.00 | 0.00 | 0.00 | 81 | 1008.1 |
| 20260506150507 | 58 | 197 | 2.0 | 4.0 | 0.00 | 0.00 | 0.00 | 81 | 1008.2 |
| 20260506150020 | 58 | 195 | 2.0 | 6.0 | 0.00 | 0.00 | 0.00 | 81 | 1008.0 |
| 20260506145511 | 58 | 181 | 2.0 | 6.0 | 0.00 | 0.00 | 0.00 | 81 | 1007.9 |
| 20260506145009 | 58 | 172 | 2.0 | 6.0 | 0.00 | 0.00 | 0.00 | 81 | 1007.8 |
| 20260506144522 | 58 | 200 | 2.0 | 6.0 | 0.00 | 0.00 | 0.00 | 82 | 1007.7 |
| 20260506144003 | 58 | 182 | 2.0 | 6.0 | 0.00 | 0.00 | 0.00 | 82 | 1007.7 |
| 20260506143508 | 57 | 182 | 2.0 | 4.0 | 0.00 | 0.00 | 0.00 | 82 | 1007.7 |
| 20260506143003 | 57 | 173 | 1.0 | 4.0 | 0.00 | 0.00 | 0.00 | 82 | 1007.7 |
| 20260506142506 | 57 | 206 | 1.0 | 5.0 | 0.00 | 0.00 | 0.00 | 82 | 1007.8 |
| 20260506142010 | 57 | 171 | 2.0 | 5.0 | 0.00 | 0.00 | 0.00 | 81 | 1007.8 |
| 20260506141505 | 57 | 180 | 1.0 | 4.0 | 0.00 | 0.00 | 0.00 | 82 | 1008.0 |
| 20260506141011 | 57 | 182 | 1.0 | 4.0 | 0.00 | 0.00 | 0.00 | 82 | 1008.1 |
| 20260506140506 | 57 | 192 | 1.0 | 4.0 | 0.00 | 0.00 | 0.00 | 83 | 1008.3 |
| 20260506140004 | 57 | 179 | 1.0 | 4.0 | 0.00 | 0.00 | 0.00 | 83 | 1008.4 |
| 20260506135507 | 57 | 178 | 1.0 | 4.0 | 0.00 | 0.00 | 0.00 | 83 | 1008.4 |
| 20260506135008 | 57 | 156 | 1.0 | 3.0 | 0.00 | 0.00 | 0.00 | 83 | 1008.2 |
| 20260506134504 | 56 | 173 | 1.0 | 3.0 | 0.00 | 0.00 | 0.00 | 84 | 1008.2 |
| 20260506134008 | 56 | 178 | 1.0 | 3.0 | 0.00 | 0.00 | 0.00 | 83 | 1008.3 |
| 20260506133507 | 57 | 151 | 1.0 | 3.0 | 0.00 | 0.00 | 0.00 | 82 | 1008.3 |
| 20260506133006 | 57 | 171 | 1.0 | 3.0 | 0.00 | 0.00 | 0.00 | 82 | 1008.3 |
| 20260506132511 | 57 | 158 | 1.0 | 3.0 | 0.00 | 0.00 | 0.00 | 83 | 1008.1 |
| 20260506132007 | 57 | 155 | 0.0 | 3.0 | 0.00 | 0.00 | 0.00 | 82 | 1008.1 |
| 20260506131507 | 57 | 157 | 1.0 | 3.0 | 0.00 | 0.00 | 0.00 | 82 | 1008.0 |
| 20260506131008 | 57 | 161 | 0.0 | 3.0 | 0.00 | 0.00 | 0.00 | 82 | 1008.2 |
| 20260506130507 | 57 | 134 | 1.0 | 3.0 | 0.00 | 0.00 | 0.00 | 81 | 1008.1 |
| 20260506130009 | 57 | 172 | 1.0 | 3.0 | 0.00 | 0.00 | 0.00 | 80 | 1008.1 |
| 20260506125506 | 58 | 175 | 1.0 | 4.0 | 0.00 | 0.00 | 0.00 | 80 | 1008.1 |
| 20260506125007 | 57 | 13 | 1.0 | 4.0 | 0.00 | 0.00 | 0.00 | 81 | 1008.1 |
| 20260506124508 | 57 | 185 | 0.0 | 5.0 | 0.00 | 0.00 | 0.00 | 82 | 1008.1 |
| 20260506124007 | 57 | 171 | 0.0 | 5.0 | 0.00 | 0.00 | 0.00 | 82 | 1008.2 |
| 20260506123504 | 57 | 114 | 1.0 | 5.0 | 0.00 | 0.00 | 0.00 | 83 | 1008.2 |
| 20260506123012 | 56 | 175 | 0.0 | 3.0 | 0.00 | 0.00 | 0.00 | 82 | 1008.2 |
| 20260506122507 | 56 | 155 | 0.0 | 3.0 | 0.00 | 0.00 | 0.00 | 83 | 1008.2 |
| 20260506122003 | 56 | 184 | 0.0 | 3.0 | 0.00 | 0.00 | 0.00 | 84 | 1008.3 |
| 20260506121513 | 55 | 215 | 1.0 | 3.0 | 0.00 | 0.00 | 0.00 | 84 | 1008.3 |
| 20260506121011 | 55 | 189 | 0.0 | 2.0 | 0.00 | 0.00 | 0.00 | 83 | 1008.4 |
| 20260506120502 | 55 | 180 | 0.0 | 2.0 | 0.00 | 0.00 | 0.00 | 84 | 1008.3 |
| 20260506120017 | 55 | 173 | 0.0 | 2.0 | 0.00 | 0.00 | 0.00 | 84 | 1008.3 |
| 20260506115516 | 55 | 150 | 0.0 | 4.0 | 0.00 | 0.00 | 0.00 | 84 | 1008.5 |
| 20260506115002 | 55 | 143 | 0.0 | 4.0 | 0.00 | 0.00 | 0.00 | 84 | 1008.6 |
| 20260506114516 | 54 | 162 | 0.0 | 2.0 | 0.00 | 0.00 | 0.00 | 85 | 1008.6 |
| 20260506114012 | 54 | 162 | 0.0 | 2.0 | 0.00 | 0.00 | 0.00 | 85 | 1008.5 |
| 20260506113506 | 54 | 221 | 0.0 | 3.0 | 0.00 | 0.00 | 0.00 | 84 | 1008.9 |
| 20260506113014 | 54 | 130 | 0.0 | 3.0 | 0.00 | 0.00 | 0.00 | 85 | 1008.6 |
| 20260506112510 | 54 | 119 | 0.0 | 2.0 | 0.00 | 0.00 | 0.00 | 85 | 1008.6 |
| 20260506112003 | 53 | 115 | 0.0 | 2.0 | 0.00 | 0.00 | 0.00 | 86 | 1008.6 |
| 20260506111513 | 53 | 150 | 0.0 | 1.0 | 0.00 | 0.00 | 0.00 | 87 | 1008.8 |
| 20260506111009 | 53 | 150 | 0.0 | 1.0 | 0.00 | 0.00 | 0.00 | 87 | 1008.8 |
| 20260506110505 | 53 | 150 | 0.0 | 1.0 | 0.00 | 0.00 | 0.00 | 86 | 1008.7 |
| 20260506110021 | 52 | 150 | 0.0 | 1.0 | 0.00 | 0.00 | 0.00 | 87 | 1008.6 |
| 20260506105507 | 52 | 150 | 0.0 | 1.0 | 0.00 | 0.00 | 0.00 | 87 | 1008.7 |
| 20260506105005 | 52 | 150 | 0.0 | 1.0 | 0.00 | 0.00 | 0.00 | 87 | 1008.6 |
| 20260506104518 | 52 | 150 | 0.0 | 1.0 | 0.00 | 0.00 | 0.00 | 87 | 1008.7 |
| 20260506104009 | 52 | 150 | 0.0 | 1.0 | 0.00 | 0.00 | 0.00 | 87 | 1008.6 |
| 20260506103504 | 52 | 144 | 0.0 | 4.0 | 0.00 | 0.00 | 0.00 | 87 | 1008.5 |
| 20260506103021 | 52 | 128 | 0.0 | 4.0 | 0.00 | 0.00 | 0.00 | 87 | 1008.3 |
| 20260506102510 | 51 | 128 | 0.0 | 2.0 | 0.00 | 0.00 | 0.00 | 88 | 1008.3 |
| 20260506102006 | 51 | 132 | 0.0 | 1.0 | 0.00 | 0.00 | 0.00 | 88 | 1008.4 |
| 20260506101533 | 51 | 132 | 0.0 | 1.0 | 0.00 | 0.00 | 0.00 | 88 | 1008.4 |
| 20260506101003 | 51 | 132 | 0.0 | 2.0 | 0.00 | 0.00 | 0.00 | 89 | 1008.2 |
| 20260506100505 | 51 | 115 | 0.0 | 2.0 | 0.00 | 0.00 | 0.00 | 89 | 1008.1 |
| 20260506100019 | 50 | 115 | 0.0 | 2.0 | 0.00 | 0.00 | 0.00 | 89 | 1008.2 |
| 20260506095506 | 50 | 157 | 0.0 | 2.0 | 0.00 | 0.00 | 0.00 | 88 | 1008.3 |
| 20260506095007 | 50 | 119 | 0.0 | 2.0 | 0.00 | 0.00 | 0.00 | 88 | 1008.2 |
| 20260506094524 | 50 | 119 | 0.0 | 2.0 | 0.00 | 0.00 | 0.00 | 88 | 1008.0 |
| 20260506094008 | 51 | 154 | 0.0 | 1.0 | 0.00 | 0.00 | 0.00 | 87 | 1008.1 |
| 20260506093510 | 51 | 154 | 0.0 | 1.0 | 0.00 | 0.00 | 0.00 | 87 | 1008.0 |
| 20260506093033 | 51 | 154 | 0.0 | 1.0 | 0.00 | 0.00 | 0.00 | 87 | 1007.9 |
| 20260506092504 | 51 | 154 | 0.0 | 1.0 | 0.00 | 0.00 | 0.00 | 86 | 1008.1 |
| 20260506092013 | 51 | 154 | 0.0 | 1.0 | 0.00 | 0.00 | 0.00 | 86 | 1008.0 |
| 20260506091525 | 51 | 250 | 0.0 | 2.0 | 0.00 | 0.00 | 0.00 | 86 | 1008.0 |
| 20260506091004 | 51 | 250 | 0.0 | 2.0 | 0.00 | 0.00 | 0.00 | 86 | 1008.0 |
| 20260506090506 | 52 | 179 | 0.0 | 2.0 | 0.00 | 0.00 | 0.00 | 86 | 1008.0 |
| 20260506090026 | 52 | 182 | 0.0 | 2.0 | 0.00 | 0.00 | 0.00 | 85 | 1008.0 |
| 20260506085503 | 52 | 178 | 0.0 | 2.0 | 0.00 | 0.00 | 0.00 | 85 | 1007.9 |
| 20260506085007 | 52 | 178 | 0.0 | 2.0 | 0.00 | 0.00 | 0.00 | 85 | 1007.8 |
| 20260506084528 | 52 | 178 | 0.0 | 2.0 | 0.00 | 0.00 | 0.00 | 85 | 1007.8 |
| 20260506084007 | 52 | 179 | 0.0 | 4.0 | 0.00 | 0.00 | 0.00 | 85 | 1007.9 |
| 20260506083509 | 52 | 145 | 0.0 | 4.0 | 0.00 | 0.00 | 0.00 | 85 | 1007.9 |
| 20260506083028 | 52 | 275 | 0.0 | 3.0 | 0.00 | 0.00 | 0.00 | 85 | 1007.8 |
| 20260506082508 | 52 | 103 | 0.0 | 1.0 | 0.00 | 0.00 | 0.00 | 85 | 1007.8 |
| 20260506082009 | 52 | 99 | 0.0 | 1.0 | 0.00 | 0.00 | 0.00 | 84 | 1007.8 |
| 20260506081536 | 52 | 99 | 0.0 | 1.0 | 0.00 | 0.00 | 0.00 | 84 | 1007.8 |
| 20260506081006 | 52 | 80 | 0.0 | 2.0 | 0.00 | 0.00 | 0.00 | 84 | 1007.9 |
| 20260506080510 | 52 | 80 | 0.0 | 2.0 | 0.00 | 0.00 | 0.00 | 84 | 1007.8 |